Starlink 35046

operational
NORAD ID: 65701 Int'l Des: 2025-212 Owner: SPXS Country: US Constellation: starlink
LEOCIRCULAR

Über Starlink 35046

Beschreibung wird geladen...

Live-Position

3D-Globus wird geladen...

Nächste Überflüge

Höhenverlauf

Altitude vs Time

uPlot chart will show altitude changes over time

Zweizeiliger Elementsatz

1 65701U 25212AB 26063.14556201 .00041127 00000-0 13929-2 0 9993
2 65701 53.1605 11.4977 0001306 70.8583 289.2559 15.30202485 26391
Epoch: 4. März 2026 • Age: 11 hours

Aktueller Status

Höhe 487.1 km
Geschwindigkeit 7.62 km/s
Subsatellitenpunkt -36.03°S, 8.09°E
Startdatum 21. Sept. 2025
Alter 0.4 years
Typ internet

Technische Details

Klassifizierung Payload
Masse 575.00 kg
Trockenmasse 530.00 kg
Gesamtmasse 575.00 kg
Länge 0.30 m
Durchmesser 4.10 m
Spannweite 29.00 m
Form Box + pan
Hersteller SPXS
Bus-Typ Starlink V2MO
Phasenstatus In Orbit
Besitzer/Staat SPXS/US

Große Konstellationen

Loading constellations...